[TLELIST] Archives

 

Current TLEs

May 31st 2006 PDT

HST 1 20580U 90037B 06150.46431106 .00000426 00000-0 20426-4 0 6202 2 20580 028.4663 165.4165 0003246 358.1343 001.9248 15.00043162682435 ISS (ZARYA) 1 25544U 98067A 06151.49380152 .00014898 00000-0 98553-4 0 282 2 25544 051.6348 273.4372 0008790 272.2312 129.1676 15.75777473430530 CXO 1 25867U 99040B 06151.87500000 .00000000 00000-0 00000+0 0 9329 2 25867 059.6512 096.9387 5785175 291.5877 356.8569 00.37787081 1214 ____________________________________________________________________ These 2-Line ...Continue Reading

Current TLEs

May 30th 2006 PDT

HST 1 20580U 90037B 06149.39976578 .00000526 00000-0 28212-4 0 6199 2 20580 028.4668 172.3580 0003249 344.6140 015.4354 15.00043048682279 ISS (ZARYA) 1 25544U 98067A 06149.80131655 .00014407 00000-0 95670-4 0 188 2 25544 051.6342 282.1516 0008840 264.2646 249.6782 15.75723348430266 CXO 1 25867U 99040B 06151.87500000 .00000000 00000-0 00000+0 0 9329 2 25867 059.6512 096.9387 5785175 291.5877 356.8569 00.37787081 1214 ____________________________________________________________________ These 2-Line ...Continue Reading

Current TLEs

May 29th 2006 PDT

HST 1 20580U 90037B 06148.40175582 +.00000412 +00000-0 +19290-4 0 06309 2 20580 028.4673 178.8690 0003409 333.3035 026.7376 15.00041837682121 ISS (ZARYA) 1 25544U 98067A 06148.91178571 +.00014518 +00000-0 +96478-4 0 00132 2 25544 051.6346 286.7326 0008913 260.3984 244.2229 15.75697186430124 CXO 1 25867U 99040B 06149.25000000 .00000000 00000-0 00000+0 0 9312 2 25867 059.6416 096.9356 5785302 291.7218 359.4246 00.37785552 1218 ____________________________________________________________________ These 2-Line ...Continue Reading

Current TLEs

May 6th 2006 PDT

HST 1 20580U 90037B 06124.91515167 .00000673 00000-0 39829-4 0 6024 2 20580 028.4685 331.9705 0003729 089.3370 270.7645 15.00024788678590 ISS (ZARYA) 1 25544U 98067A 06126.49163194 .00019663 00000-0 13287-3 0 8798 2 25544 051.6374 042.1073 0009664 165.1701 181.1853 15.75024793426586 CXO 1 25867U 99040B 06125.45833333 .00000000 00000-0 00000+0 0 9221 2 25867 059.3732 097.4221 5790917 292.1225 000.3227 00.37793273 1214 ____________________________________________________________________ These 2-Line ...Continue Reading

Current TLEs

May 5th 2006 PDT

HST 1 20580U 90037B 06124.91515167 .00000673 00000-0 39829-4 0 6024 2 20580 028.4685 331.9705 0003729 089.3370 270.7645 15.00024788678590 ISS (ZARYA) 1 25544U 98067A 06125.44259259 .00059851 00000-0 39391-3 0 8720 2 25544 051.6393 047.5037 0009789 163.0053 351.2949 15.75018669426425 CXO 1 25867U 99040B 06125.45833333 .00000000 00000-0 00000+0 0 9221 2 25867 059.3732 097.4221 5790917 292.1225 000.3227 00.37793273 1214 ____________________________________________________________________ These 2-Line ...Continue Reading

Current TLEs

May 4th 2006 PDT

HST 1 20580U 90037B 06123.85059430 .00000701 00000-0 41979-4 0 6012 2 20580 028.4684 338.9101 0003658 077.8306 282.2689 15.00023792678431 ISS (ZARYA) 1 25544U 98067A 06124.41903053 .00017351 00000-0 11341-3 0 8605 2 25544 051.6388 052.7632 0008628 182.5665 284.1093 15.75911743426265 CXO 1 25867U 99040B 06122.79166667 .00000000 00000-0 00000+0 0 9213 2 25867 059.3646 097.4451 5789180 292.2185 357.2457 00.37787992 1219 ____________________________________________________________________ These 2-Line ...Continue Reading

Current TLEs

May 3rd 2006 PDT

HST 1 20580U 90037B 06121.92108145 +.00000723 +00000-0 +43712-4 0 06231 2 20580 028.4683 351.4880 0003430 057.0396 303.0525 15.00021678678141 ISS (ZARYA) 1 25544U 98067A 06123.47800926 .00016294 00000-0 10694-3 0 8532 2 25544 051.6388 057.6087 0008624 177.7387 346.6972 15.75873623426114 CXO 1 25867U 99040B 06122.79166667 .00000000 00000-0 00000+0 0 9213 2 25867 059.3646 097.4451 5789180 292.2185 357.2457 00.37787992 1219 ____________________________________________________________________ These 2-Line ...Continue Reading

Current TLEs

May 2nd 2006 PDT

HST 1 20580U 90037B 06121.92108145 +.00000723 +00000-0 +43712-4 0 06231 2 20580 028.4683 351.4880 0003430 057.0396 303.0525 15.00021678678141 ISS (ZARYA) 1 25544U 98067A 06121.94933694 +.00016955 +00000-0 +11133-3 0 08455 2 25544 051.6378 065.4785 0008789 172.2485 314.0959 15.75823871425872 CXO 1 25867U 99040B 06122.79166667 .00000000 00000-0 00000+0 0 9213 2 25867 059.3646 097.4451 5789180 292.2185 357.2457 00.37787992 1219 ____________________________________________________________________ These 2-Line ...Continue Reading

Current TLEs

May 1st 2006 PDT

HST 1 20580U 90037B 06120.85652143 .00000632 00000-0 36617-4 0 5991 2 20580 028.4685 358.4283 0003278 045.3524 314.7332 15.00020027677983 ISS (ZARYA) 1 25544U 98067A 06121.44502315 .00017247 00000-0 11325-3 0 8405 2 25544 051.6386 068.0752 0008756 170.1797 333.2989 15.75807820425794 CXO 1 25867U 99040B 06120.16666667 .00000000 00000-0 00000+0 0 9206 2 25867 059.3357 097.4652 5794016 292.3120 359.8220 00.37795408 1212 ____________________________________________________________________ These 2-Line ...Continue Reading

Current TLEs

April 30th 2006 PDT

HST 1 20580U 90037B 06119.72542563 .00000591 00000-0 33344-4 0 5986 2 20580 028.4682 005.8016 0003326 032.5434 327.5369 15.00018664677817 ISS (ZARYA) 1 25544U 98067A 06120.49392361 .00014100 00000-0 93573-4 0 8330 2 25544 051.6376 072.9731 0008733 165.3417 339.0277 15.75762836425649 CXO 1 25867U 99040B 06120.16666667 .00000000 00000-0 00000+0 0 9206 2 25867 059.3357 097.4652 5794016 292.3120 359.8220 00.37795408 1212 ____________________________________________________________________ These 2-Line ...Continue Reading
  • This mailing list is a public mailing list - anyone may join or leave, at any time.
  • This mailing list is announce-only.

International Space Station (ISS) / Hubble Space Telescope (HST) / Chandra X-Ray Observatory Orbital Data via EMAIL

Privacy Policy:

Private list